Location: Dead Woman Crossing
(43.5369°N, 106.3228°W)
Time: 21:32:28
(UTC+00:00)

KKS-1 - Visible Passes

Search period start: 28 June 2022 00:00
Search period end: 08 July 2022 00:00
Orbit: 636 x 647 km, 98.2° (Epoch: 28 June)

Date Brightness Start Highest point End Pass type
(mag) Time Alt. Az. Time Alt. Az. Time Alt. Az.
28 Jun ? 04:19:14 10° NE 04:22:56 25° E 04:24:38 20° SE visible
28 Jun ? 05:55:28 10° N 05:59:29 33° WNW 06:02:15 17° WSW visible
29 Jun ? 04:42:47 10° NNE 04:47:04 43° E 04:48:53 28° SSE visible
29 Jun ? 06:20:00 10° NNW 06:23:16 20° WNW 06:26:30 10° WSW visible
30 Jun ? 05:06:36 10° NNE 05:11:06 78° ESE 05:13:08 32° S visible
30 Jun ? 06:45:10 10° NW 06:46:59 12° WNW 06:48:48 10° W visible
01 Jul ? 03:55:50 10° ENE 03:58:10 14° E 03:59:46 12° ESE visible
01 Jul ? 05:30:39 10° N 05:35:04 59° WNW 05:37:23 26° SW visible
02 Jul ? 04:18:43 10° NE 04:22:23 24° E 04:24:01 20° SE visible
02 Jul ? 05:54:54 10° N 05:58:56 34° WNW 06:01:38 18° WSW visible
03 Jul ? 04:42:14 10° NNE 04:46:30 42° E 04:48:15 29° SSE visible
03 Jul ? 06:19:25 10° NNW 06:22:44 21° WNW 06:25:51 11° WSW visible
04 Jul ? 05:06:03 10° NNE 05:10:33 76° ESE 05:12:28 34° S visible
04 Jul ? 06:44:31 10° NW 06:46:26 13° WNW 06:48:20 10° W visible
05 Jul ? 03:55:22 10° ENE 03:57:36 14° E 03:59:06 12° ESE visible
05 Jul ? 05:30:05 10° N 05:34:30 61° WNW 05:36:43 28° SW visible
06 Jul ? 04:18:12 10° NE 04:21:48 24° E 04:23:19 20° ESE visible
06 Jul ? 05:54:20 10° N 05:58:23 35° WNW 06:00:56 19° WSW visible
07 Jul ? 04:41:42 10° NNE 04:45:56 41° E 04:47:32 29° SE visible
07 Jul ? 06:18:49 10° NNW 06:22:10 21° WNW 06:25:10 12° WSW visible
